Location: Newark
(43.4306°N, 0.3089°E)
Time: 01:32:06
(UTC+00:00)

Vanguard 1 Rocket - Pass Details

Date: 03 September 2019
Orbit: 651 x 4225 km, 34.3° (Epoch: 19 September)

Event Time Altitude Azimuth Distance (km) Brightness Sun altitude
Rises 21:01:23 0° 216° (SW) 5,667 11.4 -25.3°
Reaches altitude 10° 21:07:08 10° 201° (SSW) 3,936 10.4 -26.1°
Enters shadow 21:08:59 13° 192° (SSW) 3,426 10.0 -26.4°
